Regional Weather Roundup
Issued by NWS Sterling, VA

Home | Current Version | Previous Version | Graphics & Text | Print | Product List | Glossary On
Versions: 1 2 3 4 5 6 7 8 9 10 11 12 13 14 15 16 17 18 19 20 21 22 23 24 25 26 27
000
ASUS41 KLWX 182110
RWRLWX

REGIONAL WEATHER ROUNDUP
NATIONAL WEATHER SERVICE BALTIMORE MD/WASHINGTON DC
500 PM EDT FRI APR 18 2014

Note: "FAIR" indicates few or no clouds below 12,000 feet
with no significant weather and/or obstructions to visibility.
 TC=TEMPERATURE CELSIUS

 * =Non NWS site. Station does not report precipitation (e.g. rain,
    snow, etc.), thunder, or fog.

DCZ001-MDZ009-015-VAZ040>042-051-053>054-182200-
WASHINGTON METRO

CITY           SKY/WX    TMP DP  RH WIND       PRES   REMARKS
WASHINGTON NAT PTSUNNY   55  33  43 CALM      30.35F
DULLES         PTSUNNY   55  32  41 VRB7      30.32F
ANDREWS AFB    PTSUNNY   51  34  52 SE3       30.34F
FT BELVOIR     PTSUNNY   55  33  43 VRB1      30.35F
QUANTICO       PTSUNNY   54  33  45 E3        30.34F
COLLEGE PARK*  PTSUNNY   54  32  43 SE5       30.34F
LEESBURG*      MOSUNNY   57  37  47 CALM      30.33F
MANASSAS*      PTSUNNY   55  36  47 E5        30.32F
GAITHERSBURG*  SUNNY     54  32  43 CALM      30.36F

$$

MDZ006>007-011-014-182200-
BALTIMORE METRO

CITY           SKY/WX    TMP DP  RH WIND       PRES   REMARKS
BWI AIRPORT    CLOUDY    50  31  48 CALM      30.35F
MD SCIENCE CTR   N/A     51  32  48 MISG      30.37F
MARTIN STATE   CLOUDY    52  34  50 CALM      30.37F
ANNAPOLIS      CLOUDY    51  35  54 CALM      30.37F
FORT MEADE*    CLOUDY    52  32  46 SE3       30.37F

$$

MDZ012-015-019>023-182200-
MARYLAND EASTERN SHORE

CITY           SKY/WX    TMP DP  RH WIND       PRES   REMARKS
OCEAN CITY     CLOUDY    46  38  73 E9        30.37F
SALISBURY      PTSUNNY   54  37  52 NE7       30.34F
BAY BRIDGE AP* CLOUDY    48  36  61 W3        30.37S
CAMBRIDGE*     PTSUNNY   54  39  58 W8        30.34S
EASTON*        CLOUDY    55  37  50 CALM      30.38F

$$

MDZ017>025-182200-
SOUTHERN MARYLAND

CITY           SKY/WX    TMP DP  RH WIND       PRES   REMARKS
PATUXENT RIVER CLOUDY    50  35  56 CALM      30.35F
ST INIGOES     CLOUDY    49  37  63 W3        30.34F
LEONARDTOWN*   CLOUDY    50  32  50 CALM      30.36F

$$

MDZ003>005-182200-
NORTH CENTRAL MARYLAND

CITY           SKY/WX    TMP DP  RH WIND       PRES   REMARKS
FREDERICK*     SUNNY     57  37  47 S7        30.35F
HAGERSTOWN APT MOSUNNY   54  32  43 S9        30.29F
WESTMINSTER*   SUNNY     57  34  41 SW6       30.31F

$$

MDZ501>502-182200-
WESTERN MARYLAND

CITY           SKY/WX    TMP DP  RH WIND       PRES   REMARKS
OAKLAND*       PTSUNNY   59  19  21 SE9       30.23F
CUMBERLAND*    PTSUNNY   63  32  31 E7        30.29F

$$

VAZ025>031-182200-
SHENANDOAH VALLEY

CITY           SKY/WX    TMP DP  RH WIND       PRES   REMARKS
WINCHESTER*    MOSUNNY   57  37  47 E7        30.29F
STAUNTON*      PTSUNNY   58  36  44 S6        30.28F

$$

WVZ021-048>050-054>055-182200-
EASTERN WEST VIRGINIA PANHANDLE

CITY           SKY/WX    TMP DP  RH WIND       PRES   REMARKS
MARTINSBURG    MOSUNNY   57  34  41 VRB5      30.30F
PETERSBURG*    PTSUNNY   71  41  33 E7        30.22F

$$

VAZ036>039-050-182200-
CENTRAL FOOTHILLS

CITY           SKY/WX    TMP DP  RH WIND       PRES   REMARKS
CHARLOTTESVILL CLOUDY    56  36  47 SE7       30.29F
CULPEPER*      PTSUNNY   61  34  36 CALM      30.32F

$$

VAZ055>057-182200-
NORTH AND CENTRAL PIEDMONT

CITY           SKY/WX    TMP DP  RH WIND       PRES   REMARKS
FREDERICKSBRG* CLOUDY    55  36  47 SE5       30.33F
STAFFORD*      CLOUDY    54  37  52 CALM      30.38F

$$

NCZ024-NYZ072-PAZ021-071-VAZ022-071-182200-
OTHER REGIONAL OBSERVATIONS

CITY           SKY/WX    TMP DP  RH WIND       PRES   REMARKS
NEW YORK CITY  CLOUDY    48  29  47 S3        30.39S
PHILADELPHIA   PTSUNNY   55  30  38 CALM      30.36F
PITTSBURGH     CLOUDY    67  31  26 W9G18     30.20F
ROANOKE        CLOUDY    53  38  56 E3        30.29F
RICHMOND       CLOUDY    54  34  46 E6        30.32F
RALEIGH        CLOUDY    61  41  47 N7        30.27F

$$

ANZ530>537-182200-
MARINE OBSERVATIONS

STATION/POSITION TIME  TEMP    WIND        PRES
                       AIR SEA DIR/SP/G
                 (UTC) (F)     (DEG/KT/KT) (MB)
THOMAS PT LIGHT  2100   48 53  280/  4/  5 1028.6F
BALT KEY BRIDGE  2100   48      70/  3/  3 1028.3F
COVE POINT       2100   47      CALM  /  2 1027.7F
LEWISETTA        2100   48 53   70/  2/  3 1027.3F
SOLOMONS ISLAND  2100      52                N/A
PINEY POINT      2100          210/  2/  2   N/A

$$




USA.gov is the U.S. government's official web portal to all federal, state and local government web resources and services.